Orbital elements of SL-14 R/B
| Launched | 17 December 1986 |
| Flight ended | – |
| Launch site | Plesetsk Missile and Space Complex, Russia |
| Owner | Commonwealth of Independent States (former USSR) |
| NORAD ID | 17242 |
| Date fetched |
Epoch osculation |
Inc. [°] |
Ecc. | RA asc node [hr] |
Arg Peri. [°] |
Mean anom [°] |
Mean motion [rev/day] |
Abs. mag |
| Date fetched |
Epoch osculation |
Inc. [°] |
Ecc. | RA asc node [hr] |
Arg Peri. [°] |
Mean anom [°] |
Mean motion [rev/day] |
Abs. mag |
| 2026 May 01 17:56 | 2026 Apr 30 15:00:32 | 82.5301 | 0.00145 | 21.8700 | 337.6263 | 83.0934 | 13.83393 | 5.243 |
| 2026 Apr 30 17:56 | 2026 Apr 30 15:00:32 | 82.5301 | 0.00145 | 21.8700 | 337.6263 | 83.0934 | 13.83393 | 5.243 |
| 2026 Apr 29 17:57 | 2026 Apr 24 13:12:40 | 82.5309 | 0.00149 | 22.1921 | 355.0231 | 83.0934 | 13.83393 | 5.243 |
| 2026 Apr 28 17:56 | 2026 Apr 24 13:12:40 | 82.5309 | 0.00149 | 22.1921 | 355.0231 | 83.0934 | 13.83393 | 5.243 |
| 2026 Apr 27 17:58 | 2026 Apr 24 13:12:40 | 82.5309 | 0.00149 | 22.1921 | 355.0231 | 83.0934 | 13.83393 | 5.243 |
| 2026 Apr 26 17:58 | 2026 Apr 24 13:12:40 | 82.5309 | 0.00149 | 22.1921 | 355.0231 | 83.0934 | 13.83393 | 5.243 |
| 2026 Apr 25 17:58 | 2026 Apr 24 13:12:40 | 82.5309 | 0.00149 | 22.1921 | 355.0231 | 83.0934 | 13.83393 | 5.243 |
| 2026 Apr 24 17:59 | 2026 Apr 24 13:12:40 | 82.5309 | 0.00149 | 22.1921 | 355.0231 | 83.0934 | 13.83393 | 5.243 |
| 2026 Apr 23 17:57 | 2026 Apr 19 03:28:29 | 82.5318 | 0.00153 | 22.4786 | 10.0655 | 83.0934 | 13.83393 | 5.243 |
| 2026 Apr 22 17:57 | 2026 Apr 19 03:28:29 | 82.5318 | 0.00153 | 22.4786 | 10.0655 | 83.0934 | 13.83393 | 5.243 |
| 2026 Apr 21 17:57 | 2026 Apr 19 03:28:29 | 82.5318 | 0.00153 | 22.4786 | 10.0655 | 83.0934 | 13.83393 | 5.243 |
| 2026 Apr 20 17:57 | 2026 Apr 19 03:28:29 | 82.5318 | 0.00153 | 22.4786 | 10.0655 | 83.0934 | 13.83393 | 5.243 |
| 2026 Apr 19 17:58 | 2026 Apr 19 03:28:29 | 82.5318 | 0.00153 | 22.4786 | 10.0655 | 83.0934 | 13.83393 | 5.243 |
| 2026 Apr 18 17:56 | 2026 Apr 13 01:41:24 | 82.5329 | 0.00157 | 22.8005 | 26.5616 | 83.0934 | 13.83393 | 5.243 |
| 2026 Apr 16 17:57 | 2026 Apr 13 01:41:24 | 82.5329 | 0.00157 | 22.8005 | 26.5616 | 83.0934 | 13.83393 | 5.243 |
| 2026 Apr 14 17:57 | 2026 Apr 13 01:41:24 | 82.5329 | 0.00157 | 22.8005 | 26.5616 | 83.0934 | 13.83393 | 5.243 |
| 2026 Apr 13 17:57 | 2026 Apr 13 01:41:24 | 82.5329 | 0.00157 | 22.8005 | 26.5616 | 83.0934 | 13.83393 | 5.243 |
| 2026 Apr 12 17:57 | 2026 Apr 08 05:09:02 | 82.5337 | 0.00159 | 23.0578 | 39.5710 | 83.0934 | 13.83393 | 5.243 |
| 2026 Apr 11 17:57 | 2026 Apr 08 05:09:02 | 82.5337 | 0.00159 | 23.0578 | 39.5710 | 83.0934 | 13.83393 | 5.243 |
| 2026 Apr 10 17:58 | 2026 Apr 08 05:09:02 | 82.5337 | 0.00159 | 23.0578 | 39.5710 | 83.0934 | 13.83393 | 5.243 |
| 2026 Apr 09 18:01 | 2026 Apr 08 05:09:02 | 82.5337 | 0.00159 | 23.0578 | 39.5710 | 83.0934 | 13.83393 | 5.243 |
| 2026 Apr 08 17:57 | 2026 Apr 08 05:09:02 | 82.5337 | 0.00159 | 23.0578 | 39.5710 | 83.0934 | 13.83393 | 5.243 |
| 2026 Apr 07 17:57 | 2026 Apr 02 06:51:00 | 82.5346 | 0.00162 | 23.3719 | 55.1341 | 83.0934 | 13.83393 | 5.243 |
| 2026 Apr 06 17:57 | 2026 Apr 02 06:51:00 | 82.5346 | 0.00162 | 23.3719 | 55.1341 | 83.0934 | 13.83393 | 5.243 |
| 2026 Apr 05 17:56 | 2026 Apr 02 06:51:00 | 82.5346 | 0.00162 | 23.3719 | 55.1341 | 83.0934 | 13.83393 | 5.243 |
| 2026 Apr 04 17:57 | 2026 Apr 02 06:51:00 | 82.5346 | 0.00162 | 23.3719 | 55.1341 | 83.0934 | 13.83393 | 5.243 |